Location: Unspecified
(0.0000°N, 0.0000°E)
Time: 10:12:26
(UTC+00:00)

X-37B - Visible Passes

Search period start: 22 January 2017 00:00
Search period end: 01 February 2017 00:00
Orbit: 259 x 286 km, 43.2° (Epoch: 06 October)

Date Brightness Start Highest point End Pass type
(mag) Time Alt. Az. Time Alt. Az. Time Alt. Az.
27 Jan 3.0 19:26:08 10° NW 19:27:16 26° NW 19:27:16 26° NW visible
28 Jan 3.3 19:17:11 10° WNW 19:19:09 27° SW 19:20:57 11° SSE visible
29 Jan 4.6 19:08:48 10° WSW 19:09:58 13° SW 19:11:07 10° SSW visible
